Weather in St. John's

Antigua and Barbuda     17°07′36″N   61°50′33″W
temp.,
°C
wind,
m/s
gust,
m/s
humid.,
%
clouds,
%
prec.,
mm/h
press.,
hPa
HPBL,
m
23 january, sat
sat2323:00+26ene56760 0.0 1017914
02:00+25e777944 0.0 1015797
05:00+25ene567759 0.0 1016653
08:00+25e677931 0.2 1017751
11:00+26e677814 0.4 1018833
14:00+26ese667729 0.6 1016779
17:00+26e667613 0.0 1014748
20:00+26ene457435 0.0 1016793
24 january, sun
sun2423:00+25ene67760 0.0 1016821
02:00+25e67760 0.0 1015814
05:00+25ene67770 0.0 1015857
08:00+25e77740 0.0 1016918
11:00+25e777217 0.1 10171024
14:00+25e566810 0.1 1015884
17:00+25e56700 0.0 1014684
20:00+25ene56670 0.0 1015751
25 january, mon
mon2523:00+25ene67770 0.0 1015864
02:00+25ene78789 0.0 1014721
05:00+25ene787939 0.0 1014690
08:00+25ene777742 0.1 1016840
11:00+25ene77750 0.1 1017829
14:00+26ene56730 0.1 1015898
17:00+25ene677345 0.0 1014900
20:00+25ene777745 0.0 1015931
26 january, tue
tue2623:00+25ene89750 0.0 1015825
02:00+25ene78760 0.0 1015936
05:00+25ene89780 0.0 1015810
08:00+25ene89720 0.0 1017827
11:00+25ene89761 0.0 1018855
14:00+25e89750 0.0 1016969
17:00+25e887549 0.0 10151046
20:00+25ene787539 0.1 10171082
27 january, wed
wed2723:00+25ene89750 0.0 1017847
02:00+25ene787824 0.2 1015881
05:00+25ene788024 0.4 1015813
08:00+25e89770 0.0 10171006
11:00+25e897316 0.1 10181143
14:00+26e667020 0.1 1016959
17:00+25e677472 0.0 1015910
20:00+25e677541 0.1 1017900